GW3840 Weather Reports


time (UTC)temp
C
wind
direction
speed
KPH
gust
KPH
rain 1hr
cm
rain 24hr
cm
rain mn
cm
humidity
%
barometer
mb
20260503211406 20 315 11.3 14.5 0.00 0.00 0.00 28 1007.4
20260503210901 20 308 6.4 14.5 0.00 0.00 0.00 32 1007.2
20260503210359 20 291 14.5 20.9 0.00 0.00 0.00 30 1007.4
20260503205853 20 343 6.4 12.9 0.00 0.00 0.00 35 1007.6
20260503205350 20 276 9.7 20.9 0.00 0.00 0.00 31 1007.7
20260503204846 19 244 12.9 16.1 0.00 0.00 0.00 32 1007.7
20260503204344 19 354 6.4 12.9 0.00 0.00 0.00 36 1007.7
20260503203841 19 256 9.7 16.1 0.00 0.00 0.00 36 1007.9
20260503203338 18 324 6.4 17.7 0.00 0.00 0.00 34 1008.0
20260503202835 18 276 8.0 14.5 0.00 0.00 0.00 34 1008.1
20260503202333 18 300 6.4 9.7 0.00 0.00 0.00 35 1008.1
20260503201831 18 0 9.7 22.5 0.00 0.00 0.00 35 1008.3
20260503201327 18 306 9.7 17.7 0.00 0.00 0.00 36 1008.3
20260503200826 18 2 11.3 22.5 0.00 0.00 0.00 33 1008.4
20260503200321 18 308 12.9 14.5 0.00 0.00 0.00 33 1008.4
20260503195819 18 347 11.3 16.1 0.00 0.00 0.00 31 1008.5
20260503195315 18 296 12.9 16.1 0.00 0.00 0.00 31 1008.7
20260503194813 18 314 6.4 11.3 0.00 0.00 0.00 34 1008.8
20260503194308 18 259 14.5 20.9 0.00 0.00 0.00 38 1008.6
20260503193804 18 313 12.9 16.1 0.00 0.00 0.00 34 1008.8
20260503193301 18 207 17.7 20.9 0.00 0.00 0.00 33 1008.7
20260503192756 18 207 17.7 20.9 0.00 0.00 0.00 33 1008.9
20260503192252 18 340 12.9 14.5 0.00 0.00 0.00 35 1008.9
20260503191749 18 324 8.0 11.3 0.00 0.00 0.00 35 1008.9
20260503191246 18 309 9.7 11.3 0.00 0.00 0.00 37 1009.1
20260503190743 18 322 8.0 14.5 0.00 0.00 0.00 35 1009.0
20260503190240 18 294 9.7 16.1 0.00 0.00 0.00 33 1009.1
20260503185737 17 267 11.3 16.1 0.00 0.00 0.00 34 1009.1
20260503185232 17 328 8.0 11.3 0.00 0.00 0.00 34 1009.3
20260503184727 17 294 8.0 16.1 0.00 0.00 0.00 33 1009.5
20260503184224 17 283 6.4 11.3 0.00 0.00 0.00 36 1009.2
20260503183720 17 15 12.9 17.7 0.00 0.00 0.00 37 1009.3
20260503183217 17 314 4.8 12.9 0.00 0.00 0.00 36 1009.6
20260503182716 17 330 3.2 14.5 0.00 0.00 0.00 33 1009.6
20260503182214 17 287 12.9 16.1 0.00 0.00 0.00 33 1009.7
20260503181710 17 348 6.4 17.7 0.00 0.00 0.00 35 1009.9
20260503181207 17 317 9.7 12.9 0.00 0.00 0.00 34 1010.0
20260503180704 17 10 6.4 9.7 0.00 0.00 0.00 38 1010.2
20260503180202 16 250 3.2 9.7 0.00 0.00 0.00 41 1010.2
20260503175659 16 5 9.7 14.5 0.00 0.00 0.00 35 1010.4
20260503175156 16 354 14.5 16.1 0.00 0.00 0.00 34 1010.4
20260503174652 16 64 12.9 20.9 0.00 0.00 0.00 35 1010.3
20260503174150 17 347 6.4 12.9 0.00 0.00 0.00 35 1010.3
20260503173644 16 243 8.0 17.7 0.00 0.00 0.00 36 1010.5
20260503173141 16 351 9.7 22.5 0.00 0.00 0.00 36 1010.4
20260503172638 16 293 6.4 12.9 0.00 0.00 0.00 38 1010.6
20260503172135 16 316 9.7 20.9 0.00 0.00 0.00 36 1010.5
20260503171632 16 253 6.4 17.7 0.00 0.00 0.00 37 1010.5
20260503171129 16 26 8.0 12.9 0.00 0.00 0.00 37 1010.6
20260503170626 16 268 4.8 12.9 0.00 0.00 0.00 38 1010.7
20260503170123 16 328 9.7 20.9 0.00 0.00 0.00 36 1010.6
20260503150515 13 324 11.3 14.5 0.00 0.00 0.00 42 1010.7
20260503131408 11 154 8.0 14.5 0.00 0.00 0.00 65 1010.2
20260503130904 11 29 8.0 11.3 0.00 0.00 0.00 65 1010.1
20260503130402 10 319 11.3 14.5 0.00 0.00 0.00 66 1010.1
20260503110805 8 357 4.8 11.3 0.00 0.00 0.00 71 1008.9
20260503110303 8 19 3.2 9.7 0.00 0.00 0.00 71 1008.8
20260503100229 8 48 1.6 3.2 0.00 0.00 0.00 71 1008.5
20260503090154 8 124 3.2 4.8 0.00 0.00 0.00 68 1007.9
20260503081630 10 341 6.4 6.4 0.00 0.00 0.00 66 1007.2
20260503081126 10 327 3.2 9.7 0.00 0.00 0.00 65 1007.2
20260503080622 10 328 4.8 6.4 0.00 0.00 0.00 65 1007.2
20260503080119 10 343 6.4 9.7 0.00 0.00 0.00 65 1007.1
20260503072556 10 233 1.6 3.2 0.00 0.00 0.00 69 1006.9
20260503072054 10 235 1.6 3.2 0.00 0.00 0.00 70 1007.0
20260503071550 8 226 0.0 1.6 0.00 0.00 0.00 74 1006.8
20260503071047 8 232 1.6 3.2 0.00 0.00 0.00 75 1006.8
20260503070543 8 224 0.0 0.0 0.00 0.00 0.00 78 1006.7
20260503055003 12 206 4.8 4.8 0.00 0.00 0.00 59 1007.0
20260503054458 12 311 1.6 3.2 0.00 0.00 0.00 61 1007.0
20260503053956 12 147 0.0 4.8 0.00 0.00 0.00 58 1006.8
20260503053454 12 270 1.6 4.8 0.00 0.00 0.00 59 1007.0
20260503052950 11 227 0.0 9.7 0.00 0.00 0.00 63 1007.0
20260503052448 11 296 4.8 4.8 0.00 0.00 0.00 66 1006.6
20260503051944 10 185 1.6 3.2 0.00 0.00 0.00 72 1006.8
20260503051440 10 302 1.6 1.6 0.00 0.00 0.00 73 1006.8
20260503050937 10 195 0.0 0.0 0.00 0.00 0.00 72 1006.9
20260503050433 11 277 0.0 0.0 0.00 0.00 0.00 71 1006.8
20260503045931 11 260 1.6 1.6 0.00 0.00 0.00 69 1006.7
20260503045429 10 175 0.0 1.6 0.00 0.00 0.00 69 1006.8
20260503044925 11 205 0.0 1.6 0.00 0.00 0.00 68 1006.8
20260503044422 11 338 3.2 4.8 0.00 0.00 0.00 65 1006.9
20260503043920 12 276 3.2 3.2 0.00 0.00 0.00 60 1006.7
20260503043416 12 226 3.2 4.8 0.00 0.00 0.00 59 1006.6
20260503042912 12 166 1.6 3.2 0.00 0.00 0.00 60 1006.6
20260503042409 13 235 0.0 3.2 0.00 0.00 0.00 60 1006.8
20260503041905 13 235 1.6 4.8 0.00 0.00 0.00 55 1006.8
20260503041403 13 199 6.4 6.4 0.00 0.00 0.00 54 1006.8
20260503040900 13 239 1.6 9.7 0.00 0.00 0.00 53 1006.7
20260503040357 13 216 4.8 6.4 0.00 0.00 0.00 52 1006.7
20260503035854 13 239 4.8 4.8 0.00 0.00 0.00 51 1007.0
20260503035351 14 227 3.2 4.8 0.00 0.00 0.00 50 1007.0
20260503034848 14 186 1.6 6.4 0.00 0.00 0.00 49 1007.0
20260503034346 14 181 1.6 9.7 0.00 0.00 0.00 47 1007.0
20260503033843 15 243 3.2 6.4 0.00 0.00 0.00 47 1007.0
20260503033340 15 224 4.8 4.8 0.00 0.00 0.00 47 1007.1
20260503032838 15 218 4.8 4.8 0.00 0.00 0.00 46 1007.2
20260503032337 15 249 3.2 9.7 0.00 0.00 0.00 46 1007.2
20260503031834 15 202 6.4 6.4 0.00 0.00 0.00 44 1007.4
20260503031331 15 235 4.8 14.5 0.00 0.00 0.00 44 1007.4
20260503030828 15 135 3.2 12.9 0.00 0.00 0.00 43 1007.2
20260503030324 15 236 4.8 12.9 0.00 0.00 0.00 42 1007.6
20260503025821 15 31 1.6 4.8 0.00 0.00 0.00 44 1007.5
20260503025319 15 239 3.2 6.4 0.00 0.00 0.00 43 1007.7
20260503024815 15 202 3.2 9.7 0.00 0.00 0.00 42 1007.8
20260503024312 15 227 8.0 12.9 0.00 0.00 0.00 42 1007.9
20260503023809 15 196 3.2 9.7 0.00 0.00 0.00 43 1007.9
20260503023306 15 208 4.8 6.4 0.00 0.00 0.00 40 1007.8
20260503022803 16 210 3.2 12.9 0.00 0.00 0.00 40 1007.6
20260503022304 16 254 8.0 11.3 0.00 0.00 0.00 38 1007.8
20260503021759 15 163 3.2 12.9 0.00 0.00 0.00 40 1007.8
20260503021255 15 243 3.2 9.7 0.00 0.00 0.00 39 1007.8
20260503020753 15 212 3.2 9.7 0.00 0.00 0.00 39 1007.7
20260503020251 15 201 8.0 11.3 0.00 0.00 0.00 40 1007.6
20260503015747 15 195 4.8 6.4 0.00 0.00 0.00 40 1007.5
20260503015244 15 166 4.8 4.8 0.00 0.00 0.00 41 1007.6
20260503014739 15 162 1.6 6.4 0.00 0.00 0.00 41 1007.9
20260503014238 15 203 1.6 4.8 0.00 0.00 0.00 41 1008.1
20260503013735 15 172 3.2 9.7 0.00 0.00 0.00 40 1008.1
20260503013232 15 220 3.2 4.8 0.00 0.00 0.00 39 1007.9
20260503012730 15 237 3.2 6.4 0.00 0.00 0.00 38 1008.1
20260503012226 16 146 3.2 9.7 0.00 0.00 0.00 38 1008.1
20260503011723 16 242 1.6 6.4 0.00 0.00 0.00 37 1008.2
20260503011220 16 183 3.2 11.3 0.00 0.00 0.00 37 1008.1
20260503010716 16 218 1.6 11.3 0.00 0.00 0.00 37 1008.2
20260503010213 16 220 1.6 3.2 0.00 0.00 0.00 36 1008.4
20260503005711 17 155 3.2 6.4 0.00 0.00 0.00 37 1008.6
20260503005208 17 183 1.6 12.9 0.00 0.00 0.00 35 1008.5
20260503004704 17 215 8.0 9.7 0.00 0.00 0.00 35 1008.6
20260503004203 17 191 3.2 9.7 0.00 0.00 0.00 35 1008.8
20260503003659 17 251 6.4 9.7 0.00 0.00 0.00 35 1008.9
20260503003156 17 215 1.6 4.8 0.00 0.00 0.00 37 1009.0
20260503002653 17 214 3.2 12.9 0.00 0.00 0.00 36 1009.0
20260503002149 17 239 3.2 16.1 0.00 0.00 0.00 36 1009.2
20260503001646 17 234 6.4 14.5 0.00 0.00 0.00 36 1009.1
20260503001143 17 233 6.4 11.3 0.00 0.00 0.00 36 1009.4
20260503000641 17 233 9.7 12.9 0.00 0.00 0.00 35 1009.5
20260503000137 17 185 9.7 14.5 0.00 0.00 0.00 35 1009.7
20260502235634 17 255 9.7 14.5 0.00 0.00 0.00 35 1010.0
20260502235132 17 220 4.8 20.9 0.00 0.00 0.00 36 1010.2
20260502234627 17 185 6.4 9.7 0.00 0.00 0.00 36 1010.3
20260502234125 17 242 9.7 12.9 0.00 0.00 0.00 36 1010.4
20260502233621 17 203 1.6 4.8 0.00 0.00 0.00 40 1010.3
20260502233118 17 240 4.8 9.7 0.00 0.00 0.00 35 1010.5
20260502232614 17 237 8.0 11.3 0.00 0.00 0.00 37 1010.5
20260502232112 17 199 1.6 9.7 0.00 0.00 0.00 37 1010.7
20260502231608 17 275 6.4 17.7 0.00 0.00 0.00 40 1010.8
20260502231106 17 254 8.0 16.1 0.00 0.00 0.00 37 1011.0
20260502230604 17 253 4.8 6.4 0.00 0.00 0.00 36 1011.0
20260502225557 17 239 3.2 6.4 0.00 0.00 0.00 37 1011.3
20260502225055 17 288 1.6 6.4 0.00 0.00 0.00 38 1011.4
20260502224551 17 229 3.2 4.8 0.00 0.00 0.00 37 1011.4
20260502224048 17 274 4.8 4.8 0.00 0.00 0.00 39 1011.5
20260502223546 16 196 1.6 4.8 0.00 0.00 0.00 40 1011.6
20260502223044 16 251 4.8 9.7 0.00 0.00 0.00 38 1011.8
20260502222541 16 260 8.0 11.3 0.00 0.00 0.00 36 1011.8
20260502222037 16 242 8.0 12.9 0.00 0.00 0.00 37 1011.7
20260502221533 16 264 4.8 11.3 0.00 0.00 0.00 37 1011.7
20260502221031 16 259 4.8 6.4 0.00 0.00 0.00 36 1011.9
20260502220526 16 254 16.1 24.1 0.00 0.00 0.00 35 1012.0
20260502220023 17 253 9.7 16.1 0.00 0.00 0.00 36 1012.2
20260502215520 17 301 19.3 27.4 0.00 0.00 0.00 34 1012.2
20260502215017 17 254 9.7 27.4 0.00 0.00 0.00 34 1012.2
20260502214514 17 273 17.7 22.5 0.00 0.00 0.00 32 1012.4
20260502214012 17 299 9.7 24.1 0.00 0.00 0.00 35 1012.0
20260502213508 17 281 11.3 14.5 0.00 0.00 0.00 33 1012.0
20260502213006 17 274 9.7 14.5 0.00 0.00 0.00 34 1011.9
20260502212504 17 286 6.4 12.9 0.00 0.00 0.00 34 1012.0
20260502212001 17 238 4.8 4.8 0.00 0.00 0.00 34 1012.4